Location: Newark
(46.7000°N, 60.6000°W)
Time: 08:17:14
(UTC+00:00)

Vanguard 3 - Pass Details

Date: 01 November 2020
Orbit: 508 x 3262 km, 33.3° (Epoch: 29 November)

Event Time Altitude Azimuth Distance (km) Brightness Sun altitude
Rises 10:29:38 0° 253° (WSW) 6,322 11.2 -3.3°
Reaches altitude 10° 10:33:32 10° 249° (WSW) 5,581 11.0 -2.7°
Maximum altitude 10:50:55 54° 179° (S) 3,725 10.7 0.1°
Drops below altitude 10° 11:08:56 10° 110° (ESE) 5,758 14.0 2.9°
Sets 11:13:02 0° 106° (ESE) 6,527 14.1 3.5°
